Year,Month,Day,Hour,Minute,Value (Times are PST for temperature in C)
2015,10,01,00,00,9.80
2015,10,01,00,01,9.80
2015,10,01,00,02,9.80
2015,10,01,00,03,9.80
2015,10,01,00,04,9.80
2015,10,01,00,05,9.80
2015,10,01,00,06,9.80
2015,10,01,00,07,9.80
2015,10,01,00,08,9.70
2015,10,01,00,09,9.70
2015,10,01,00,10,9.70
2015,10,01,00,11,9.70
2015,10,01,00,12,9.70
2015,10,01,00,13,9.80
2015,10,01,00,14,9.80
2015,10,01,00,15,9.80
2015,10,01,00,16,9.80
2015,10,01,00,17,9.80
2015,10,01,00,18,9.80
2015,10,01,00,19,9.80
2015,10,01,00,20,9.80
2015,10,01,00,21,9.80
2015,10,01,00,22,9.80
2015,10,01,00,23,9.80
2015,10,01,00,24,9.80
2015,10,01,00,25,9.80
2015,10,01,00,26,9.80
2015,10,01,00,27,9.80
2015,10,01,00,28,9.80
2015,10,01,00,29,9.80
2015,10,01,00,30,9.80
2015,10,01,00,31,9.80
2015,10,01,00,32,9.90
2015,10,01,00,33,9.90
2015,10,01,00,34,9.90
2015,10,01,00,35,9.90
2015,10,01,00,36,9.90
2015,10,01,00,37,9.90
2015,10,01,00,38,9.90
2015,10,01,00,39,9.90
2015,10,01,00,40,9.90
2015,10,01,00,41,9.90
2015,10,01,00,42,9.90
2015,10,01,00,43,9.90
2015,10,01,00,44,9.90
2015,10,01,00,45,9.90
2015,10,01,00,46,9.90
2015,10,01,00,47,9.90
2015,10,01,00,48,9.90
2015,10,01,00,49,10.00
2015,10,01,00,50,10.00
2015,10,01,00,51,10.10
2015,10,01,00,52,10.10
2015,10,01,00,53,10.20
2015,10,01,00,54,10.20
2015,10,01,00,55,10.20
2015,10,01,00,56,10.20
2015,10,01,00,57,10.10
2015,10,01,00,58,10.10
2015,10,01,00,59,10.10
2015,10,01,01,00,10.00
2015,10,01,01,01,10.00
2015,10,01,01,02,10.00
2015,10,01,01,03,10.00
2015,10,01,01,04,10.00
2015,10,01,01,05,10.00
2015,10,01,01,06,10.00
2015,10,01,01,07,10.00
2015,10,01,01,08,10.00
2015,10,01,01,09,10.00
2015,10,01,01,10,10.00
2015,10,01,01,11,10.00
2015,10,01,01,12,10.00
2015,10,01,01,13,10.00
2015,10,01,01,14,9.90
2015,10,01,01,15,9.90
2015,10,01,01,16,9.90
2015,10,01,01,17,9.90
2015,10,01,01,18,9.90
2015,10,01,01,19,9.90
2015,10,01,01,20,9.80
2015,10,01,01,21,9.80
2015,10,01,01,22,9.80
2015,10,01,01,23,9.80
2015,10,01,01,24,9.80
2015,10,01,01,25,9.80
2015,10,01,01,26,9.80
2015,10,01,01,27,9.80
2015,10,01,01,28,9.80
2015,10,01,01,29,9.80
2015,10,01,01,30,9.80
2015,10,01,01,31,9.70
2015,10,01,01,32,9.70
2015,10,01,01,33,9.70
2015,10,01,01,34,9.70
2015,10,01,01,35,9.60
2015,10,01,01,36,9.60
2015,10,01,01,37,9.50
2015,10,01,01,38,9.50
2015,10,01,01,39,9.40
2015,10,01,01,40,9.40
2015,10,01,01,41,9.30
2015,10,01,01,42,9.30
2015,10,01,01,43,9.30
2015,10,01,01,44,9.30
2015,10,01,01,45,9.30
2015,10,01,01,46,9.30
2015,10,01,01,47,9.30
2015,10,01,01,48,9.30
2015,10,01,01,49,9.20
2015,10,01,01,50,9.20
2015,10,01,01,51,9.20
2015,10,01,01,52,9.20
2015,10,01,01,53,9.20
2015,10,01,01,54,9.20
2015,10,01,01,55,9.20
2015,10,01,01,56,9.20
2015,10,01,01,57,9.10
2015,10,01,01,58,9.10
2015,10,01,01,59,9.10
2015,10,01,02,00,9.10
2015,10,01,02,01,9.10
2015,10,01,02,02,9.10
2015,10,01,02,03,9.10
2015,10,01,02,04,9.10
2015,10,01,02,05,9.20
2015,10,01,02,06,9.20
2015,10,01,02,07,9.20
2015,10,01,02,08,9.20
2015,10,01,02,09,9.20
2015,10,01,02,10,9.20
2015,10,01,02,11,9.20
2015,10,01,02,12,9.20
2015,10,01,02,13,9.20
2015,10,01,02,14,9.20
2015,10,01,02,15,9.20
2015,10,01,02,16,9.20
2015,10,01,02,17,9.20
2015,10,01,02,18,9.20
2015,10,01,02,19,9.20
2015,10,01,02,20,9.10
2015,10,01,02,21,9.10
2015,10,01,02,22,9.10
2015,10,01,02,23,9.10
2015,10,01,02,24,9.10
2015,10,01,02,25,9.10
2015,10,01,02,26,9.00
2015,10,01,02,27,9.00
2015,10,01,02,28,9.00
2015,10,01,02,29,8.90
2015,10,01,02,30,8.90
2015,10,01,02,31,8.90
2015,10,01,02,32,8.90
2015,10,01,02,33,8.90
2015,10,01,02,34,8.90
2015,10,01,02,35,8.90
2015,10,01,02,36,8.90
2015,10,01,02,37,8.90
2015,10,01,02,38,8.90
2015,10,01,02,39,8.90
2015,10,01,02,40,8.90
2015,10,01,02,41,8.90
2015,10,01,02,42,8.90
2015,10,01,02,43,8.90
2015,10,01,02,44,8.90
2015,10,01,02,45,8.90
2015,10,01,02,46,8.90
2015,10,01,02,47,8.90
2015,10,01,02,48,8.90
2015,10,01,02,49,8.90
2015,10,01,02,50,8.90
2015,10,01,02,51,8.90
2015,10,01,02,52,8.80
2015,10,01,02,53,8.80
2015,10,01,02,54,8.80
2015,10,01,02,55,8.80
2015,10,01,02,56,8.80
2015,10,01,02,57,8.80
2015,10,01,02,58,8.80
2015,10,01,02,59,8.80
2015,10,01,03,00,8.80
2015,10,01,03,01,8.80
2015,10,01,03,02,8.80
2015,10,01,03,03,8.80
2015,10,01,03,04,8.90
2015,10,01,03,05,9.00
2015,10,01,03,06,9.00
2015,10,01,03,07,9.00
2015,10,01,03,08,9.00
2015,10,01,03,09,9.00
2015,10,01,03,10,9.00
2015,10,01,03,11,9.00
2015,10,01,03,12,9.00
2015,10,01,03,13,9.00
2015,10,01,03,14,8.90
2015,10,01,03,15,8.90
2015,10,01,03,16,8.90
2015,10,01,03,17,8.90
2015,10,01,03,18,8.90
2015,10,01,03,19,8.90
2015,10,01,03,20,8.90
2015,10,01,03,21,8.80
2015,10,01,03,22,8.80
2015,10,01,03,23,8.80
2015,10,01,03,24,8.80
2015,10,01,03,25,8.80
2015,10,01,03,26,8.80
2015,10,01,03,27,8.80
2015,10,01,03,28,8.80
2015,10,01,03,29,8.80
2015,10,01,03,30,8.80
2015,10,01,03,31,8.90
2015,10,01,03,32,8.90
2015,10,01,03,33,8.90
2015,10,01,03,34,8.90
2015,10,01,03,35,8.90
2015,10,01,03,36,8.90
2015,10,01,03,37,8.90
2015,10,01,03,38,8.80
2015,10,01,03,39,8.80
2015,10,01,03,40,8.80
2015,10,01,03,41,8.80
2015,10,01,03,42,8.80
2015,10,01,03,43,8.80
2015,10,01,03,44,8.80
2015,10,01,03,45,8.80
2015,10,01,03,46,8.80
2015,10,01,03,47,8.80
2015,10,01,03,48,8.80
2015,10,01,03,49,8.80
2015,10,01,03,50,8.80
2015,10,01,03,51,8.80
2015,10,01,03,52,8.80
2015,10,01,03,53,8.80
2015,10,01,03,54,8.80
2015,10,01,03,55,8.80
2015,10,01,03,56,8.80
2015,10,01,03,57,8.80
2015,10,01,03,58,8.80
2015,10,01,03,59,8.70
2015,10,01,04,00,8.80
2015,10,01,04,01,8.70
2015,10,01,04,02,8.80
2015,10,01,04,03,8.80
2015,10,01,04,04,8.80
2015,10,01,04,05,8.80
2015,10,01,04,06,8.80
2015,10,01,04,07,8.80
2015,10,01,04,08,8.80
2015,10,01,04,09,8.80
2015,10,01,04,10,8.90
2015,10,01,04,11,8.90
2015,10,01,04,12,8.90
2015,10,01,04,13,8.90
2015,10,01,04,14,8.90
2015,10,01,04,15,8.90
2015,10,01,04,16,8.90
2015,10,01,04,17,8.90
2015,10,01,04,18,9.00
2015,10,01,04,19,9.00
2015,10,01,04,20,9.00
2015,10,01,04,21,9.10
2015,10,01,04,22,9.10
2015,10,01,04,23,9.10
2015,10,01,04,24,9.10
2015,10,01,04,25,9.20
2015,10,01,04,26,9.20
2015,10,01,04,27,9.20
2015,10,01,04,28,9.20
2015,10,01,04,29,9.20
2015,10,01,04,30,9.10
2015,10,01,04,31,9.10
2015,10,01,04,32,9.10
2015,10,01,04,33,9.10
2015,10,01,04,34,9.10
2015,10,01,04,35,9.10
2015,10,01,04,36,9.20
2015,10,01,04,37,9.20
2015,10,01,04,38,9.20
2015,10,01,04,39,9.20
2015,10,01,04,40,9.20
2015,10,01,04,41,9.20
2015,10,01,04,42,9.10
2015,10,01,04,43,9.10
2015,10,01,04,44,9.10
2015,10,01,04,45,9.10
2015,10,01,04,46,9.10
2015,10,01,04,47,9.10
2015,10,01,04,48,9.00
2015,10,01,04,49,9.00
2015,10,01,04,50,9.00
2015,10,01,04,51,9.00
2015,10,01,04,52,9.00
2015,10,01,04,53,9.00
2015,10,01,04,54,9.00
2015,10,01,04,55,9.00
2015,10,01,04,56,9.00
2015,10,01,04,57,9.00
2015,10,01,04,58,9.00
2015,10,01,04,59,9.00
2015,10,01,05,00,9.00
2015,10,01,05,01,9.00
2015,10,01,05,02,9.00
2015,10,01,05,03,9.00
2015,10,01,05,04,9.10
2015,10,01,05,05,9.10
2015,10,01,05,06,9.10
2015,10,01,05,07,9.20
2015,10,01,05,08,9.30
2015,10,01,05,09,9.30
2015,10,01,05,10,9.30
2015,10,01,05,11,9.30
2015,10,01,05,12,9.30
2015,10,01,05,13,9.30
2015,10,01,05,14,9.30
2015,10,01,05,15,9.30
2015,10,01,05,16,9.20
2015,10,01,05,17,9.20
2015,10,01,05,18,9.20
2015,10,01,05,19,9.10
2015,10,01,05,20,9.10
2015,10,01,05,21,9.10
2015,10,01,05,22,9.00
2015,10,01,05,23,9.10
2015,10,01,05,24,9.10
2015,10,01,05,25,9.10
2015,10,01,05,26,9.10
2015,10,01,05,27,9.10
2015,10,01,05,28,9.10
2015,10,01,05,29,9.10
2015,10,01,05,30,9.20
2015,10,01,05,31,9.30
2015,10,01,05,32,9.30
2015,10,01,05,33,9.30
2015,10,01,05,34,9.30
2015,10,01,05,35,9.30
2015,10,01,05,36,9.30
2015,10,01,05,37,9.30
2015,10,01,05,38,9.30
2015,10,01,05,39,9.30
2015,10,01,05,40,9.30
2015,10,01,05,41,9.30
2015,10,01,05,42,9.30
2015,10,01,05,43,9.20
2015,10,01,05,44,9.10
2015,10,01,05,45,9.10
2015,10,01,05,46,9.00
2015,10,01,05,47,9.00
2015,10,01,05,48,9.00
2015,10,01,05,49,8.90
2015,10,01,05,50,8.90
2015,10,01,05,51,8.80
2015,10,01,05,52,8.80
2015,10,01,05,53,8.80
2015,10,01,05,54,8.80
2015,10,01,05,55,8.80
2015,10,01,05,56,8.80
2015,10,01,05,57,8.80
2015,10,01,05,58,8.80
2015,10,01,05,59,8.80
2015,10,01,06,00,8.70
2015,10,01,06,01,8.70
2015,10,01,06,02,8.70
2015,10,01,06,03,8.70
2015,10,01,06,04,8.60
2015,10,01,06,05,8.60
2015,10,01,06,06,8.60
2015,10,01,06,07,8.60
2015,10,01,06,08,8.60
2015,10,01,06,09,8.60
2015,10,01,06,10,8.60
2015,10,01,06,11,8.60
2015,10,01,06,12,8.60
2015,10,01,06,13,8.60
2015,10,01,06,14,8.60
2015,10,01,06,15,8.70
2015,10,01,06,16,8.70
2015,10,01,06,17,8.70
2015,10,01,06,18,8.70
2015,10,01,06,19,8.70
2015,10,01,06,20,8.70
2015,10,01,06,21,8.70
2015,10,01,06,22,8.80
2015,10,01,06,23,8.80
2015,10,01,06,24,8.80
2015,10,01,06,25,8.80
2015,10,01,06,26,8.90
2015,10,01,06,27,8.90
2015,10,01,06,28,8.90
2015,10,01,06,29,8.90
2015,10,01,06,30,8.90
2015,10,01,06,31,8.90
2015,10,01,06,32,8.90
2015,10,01,06,33,9.00
2015,10,01,06,34,9.00
2015,10,01,06,35,9.10
2015,10,01,06,36,9.10
2015,10,01,06,37,9.20
2015,10,01,06,38,9.20
2015,10,01,06,39,9.20
2015,10,01,06,40,9.20
2015,10,01,06,41,9.20
2015,10,01,06,42,9.20
2015,10,01,06,43,9.20
2015,10,01,06,44,9.20
2015,10,01,06,45,9.20
2015,10,01,06,46,9.10
2015,10,01,06,47,9.10
2015,10,01,06,48,9.00
2015,10,01,06,49,9.00
2015,10,01,06,50,9.00
2015,10,01,06,51,9.00
2015,10,01,06,52,9.00
2015,10,01,06,53,9.00
2015,10,01,06,54,9.00
2015,10,01,06,55,9.00
2015,10,01,06,56,9.00
2015,10,01,06,57,8.90
2015,10,01,06,58,8.90
2015,10,01,06,59,8.90
2015,10,01,07,00,8.80
2015,10,01,07,01,8.80
2015,10,01,07,02,8.80
2015,10,01,07,03,8.80
2015,10,01,07,04,8.70
2015,10,01,07,05,8.70
2015,10,01,07,06,8.70
2015,10,01,07,07,8.70
2015,10,01,07,08,8.60
2015,10,01,07,09,8.60
2015,10,01,07,10,8.60
2015,10,01,07,11,8.60
2015,10,01,07,12,8.60
2015,10,01,07,13,8.60
2015,10,01,07,14,8.60
2015,10,01,07,15,8.60
2015,10,01,07,16,8.60
2015,10,01,07,17,8.50
2015,10,01,07,18,8.50
2015,10,01,07,19,8.50
2015,10,01,07,20,8.50
2015,10,01,07,21,8.50
2015,10,01,07,22,8.40
2015,10,01,07,23,8.40
2015,10,01,07,24,8.40
2015,10,01,07,25,8.40
2015,10,01,07,26,8.40
2015,10,01,07,27,8.30
2015,10,01,07,28,8.30
2015,10,01,07,29,8.30
2015,10,01,07,30,8.30
2015,10,01,07,31,8.30
2015,10,01,07,32,8.30
2015,10,01,07,33,8.30
2015,10,01,07,34,8.40
2015,10,01,07,35,8.40
2015,10,01,07,36,8.40
2015,10,01,07,37,8.40
2015,10,01,07,38,8.50
2015,10,01,07,39,8.50
2015,10,01,07,40,8.50
2015,10,01,07,41,8.60
2015,10,01,07,42,8.70
2015,10,01,07,43,8.70
2015,10,01,07,44,8.80
2015,10,01,07,45,8.80
2015,10,01,07,46,8.90
2015,10,01,07,47,8.90
2015,10,01,07,48,8.90
2015,10,01,07,49,8.90
2015,10,01,07,50,9.00
2015,10,01,07,51,9.00
2015,10,01,07,52,9.00
2015,10,01,07,53,9.00
2015,10,01,07,54,9.10
2015,10,01,07,55,9.10
2015,10,01,07,56,9.00
2015,10,01,07,57,9.00
2015,10,01,07,58,9.00
2015,10,01,07,59,9.00
2015,10,01,08,00,9.00
2015,10,01,08,01,9.00
2015,10,01,08,02,9.00
2015,10,01,08,03,9.00
2015,10,01,08,04,9.00
2015,10,01,08,05,9.10
2015,10,01,08,06,9.10
2015,10,01,08,07,9.10
2015,10,01,08,08,9.10
2015,10,01,08,09,9.10
2015,10,01,08,10,9.10
2015,10,01,08,11,9.20
2015,10,01,08,12,9.20
2015,10,01,08,13,9.30
2015,10,01,08,14,9.30
2015,10,01,08,15,9.40
2015,10,01,08,16,9.40
2015,10,01,08,17,9.40
2015,10,01,08,18,9.50
2015,10,01,08,19,9.60
2015,10,01,08,20,9.70
2015,10,01,08,21,9.80
2015,10,01,08,22,9.90
2015,10,01,08,23,9.90
2015,10,01,08,24,10.00
2015,10,01,08,25,10.00
2015,10,01,08,26,10.10
2015,10,01,08,27,10.10
2015,10,01,08,28,10.20
2015,10,01,08,29,10.20
2015,10,01,08,30,10.20
2015,10,01,08,31,10.20
2015,10,01,08,32,10.30
2015,10,01,08,33,10.30
2015,10,01,08,34,10.30
2015,10,01,08,35,10.30
2015,10,01,08,36,10.30
2015,10,01,08,37,10.30
2015,10,01,08,38,10.30
2015,10,01,08,39,10.40
2015,10,01,08,40,10.40
2015,10,01,08,41,10.40
2015,10,01,08,42,10.40
2015,10,01,08,43,10.40
2015,10,01,08,44,10.40
2015,10,01,08,45,10.50
2015,10,01,08,46,10.50
2015,10,01,08,47,10.50
2015,10,01,08,48,10.60
2015,10,01,08,49,10.60
2015,10,01,08,50,10.60
2015,10,01,08,51,10.60
2015,10,01,08,52,10.60
2015,10,01,08,53,10.60
2015,10,01,08,54,10.70
2015,10,01,08,55,10.70
2015,10,01,08,56,10.70
2015,10,01,08,57,10.70
2015,10,01,08,58,10.80
2015,10,01,08,59,10.80
2015,10,01,09,00,10.80
2015,10,01,09,01,10.80
2015,10,01,09,02,10.90
2015,10,01,09,03,10.90
2015,10,01,09,04,11.00
2015,10,01,09,05,11.00
2015,10,01,09,06,11.00
2015,10,01,09,07,11.10
2015,10,01,09,08,11.10
2015,10,01,09,09,11.10
2015,10,01,09,10,11.10
2015,10,01,09,11,11.10
2015,10,01,09,12,11.20
2015,10,01,09,13,11.20
2015,10,01,09,14,11.20
2015,10,01,09,15,11.30
2015,10,01,09,16,11.30
2015,10,01,09,17,11.30
2015,10,01,09,18,11.40
2015,10,01,09,19,11.40
2015,10,01,09,20,11.40
2015,10,01,09,21,11.50
2015,10,01,09,22,11.50
2015,10,01,09,23,11.50
2015,10,01,09,24,11.60
2015,10,01,09,25,11.60
2015,10,01,09,26,11.60
2015,10,01,09,27,11.70
2015,10,01,09,28,11.80
2015,10,01,09,29,11.80
2015,10,01,09,30,11.90
2015,10,01,09,31,11.90
2015,10,01,09,32,11.90
2015,10,01,09,33,11.90
2015,10,01,09,34,12.00
2015,10,01,09,35,12.00
2015,10,01,09,36,12.00
2015,10,01,09,37,12.10
2015,10,01,09,38,12.10
2015,10,01,09,39,12.10
2015,10,01,09,40,12.20
2015,10,01,09,41,12.20
2015,10,01,09,42,12.20
2015,10,01,09,43,12.30
2015,10,01,09,44,12.30
2015,10,01,09,45,12.30
2015,10,01,09,46,12.30
2015,10,01,09,47,12.40
2015,10,01,09,48,12.40
2015,10,01,09,49,12.40
2015,10,01,09,50,12.50
2015,10,01,09,51,12.50
2015,10,01,09,52,12.50
2015,10,01,09,53,12.50
2015,10,01,09,54,12.50
2015,10,01,09,55,12.60
2015,10,01,09,56,12.60
2015,10,01,09,57,12.60
2015,10,01,09,58,12.60
2015,10,01,09,59,12.70
2015,10,01,10,00,12.70
2015,10,01,10,01,12.70
2015,10,01,10,02,12.70
2015,10,01,10,03,12.70
2015,10,01,10,04,12.80
2015,10,01,10,05,12.80
2015,10,01,10,06,12.80
2015,10,01,10,07,12.80
2015,10,01,10,08,12.80
2015,10,01,10,09,12.80
2015,10,01,10,10,12.80
2015,10,01,10,11,12.80
2015,10,01,10,12,12.90
2015,10,01,10,13,12.90
2015,10,01,10,14,12.90
2015,10,01,10,15,12.90
2015,10,01,10,16,12.90
2015,10,01,10,17,12.90
2015,10,01,10,18,12.90
2015,10,01,10,19,13.00
2015,10,01,10,20,13.00
2015,10,01,10,21,13.00
2015,10,01,10,22,13.10
2015,10,01,10,23,13.10
2015,10,01,10,24,13.10
2015,10,01,10,25,13.10
2015,10,01,10,26,13.10
2015,10,01,10,27,13.20
2015,10,01,10,28,13.20
2015,10,01,10,29,13.20
2015,10,01,10,30,13.30
2015,10,01,10,31,13.30
2015,10,01,10,32,13.30
2015,10,01,10,33,13.30
2015,10,01,10,34,13.30
2015,10,01,10,35,13.40
2015,10,01,10,36,13.50
2015,10,01,10,37,13.60
2015,10,01,10,38,13.70
2015,10,01,10,39,13.70
2015,10,01,10,40,13.70
2015,10,01,10,41,13.70
2015,10,01,10,42,13.70
2015,10,01,10,43,13.70
2015,10,01,10,44,13.70
2015,10,01,10,45,13.70
2015,10,01,10,46,13.70
2015,10,01,10,47,13.80
2015,10,01,10,48,13.80
2015,10,01,10,49,13.80
2015,10,01,10,50,13.90
2015,10,01,10,51,13.90
2015,10,01,10,52,13.90
2015,10,01,10,53,13.90
2015,10,01,10,54,13.90
2015,10,01,10,55,13.80
2015,10,01,10,56,13.80
2015,10,01,10,57,13.80
2015,10,01,10,58,13.80
2015,10,01,10,59,13.80
2015,10,01,11,00,13.80
2015,10,01,11,01,13.90
2015,10,01,11,02,13.90
2015,10,01,11,03,14.00
2015,10,01,11,04,14.00
2015,10,01,11,05,14.00
2015,10,01,11,06,14.10
2015,10,01,11,07,14.10
2015,10,01,11,08,14.20
2015,10,01,11,09,14.20
2015,10,01,11,10,14.20
2015,10,01,11,11,14.20
2015,10,01,11,12,14.20
2015,10,01,11,13,14.30
2015,10,01,11,14,14.30
2015,10,01,11,15,14.40
2015,10,01,11,16,14.40
2015,10,01,11,17,14.50
2015,10,01,11,18,14.60
2015,10,01,11,19,14.60
2015,10,01,11,20,14.70
2015,10,01,11,21,14.80
2015,10,01,11,22,14.80
2015,10,01,11,23,14.80
2015,10,01,11,24,14.80
2015,10,01,11,25,14.80
2015,10,01,11,26,15.00
2015,10,01,11,27,15.00
2015,10,01,11,28,15.10
2015,10,01,11,29,15.10
2015,10,01,11,30,15.10
2015,10,01,11,31,15.10
2015,10,01,11,32,15.10
2015,10,01,11,33,15.20
2015,10,01,11,34,15.20
2015,10,01,11,35,15.20
2015,10,01,11,36,15.30
2015,10,01,11,37,15.30
2015,10,01,11,38,15.30
2015,10,01,11,39,15.30
2015,10,01,11,40,15.40
2015,10,01,11,41,15.40
2015,10,01,11,42,15.40
2015,10,01,11,43,15.50
2015,10,01,11,44,15.50
2015,10,01,11,45,15.60
2015,10,01,11,46,15.60
2015,10,01,11,47,15.70
2015,10,01,11,48,15.80
2015,10,01,11,49,15.80
2015,10,01,11,50,15.80
2015,10,01,11,51,15.80
2015,10,01,11,52,15.90
2015,10,01,11,53,15.90
2015,10,01,11,54,15.90
2015,10,01,11,55,15.90
2015,10,01,11,56,15.90
2015,10,01,11,57,16.00
2015,10,01,11,58,16.00
2015,10,01,11,59,16.00
2015,10,01,12,00,16.10
2015,10,01,12,01,16.20
2015,10,01,12,02,16.20
2015,10,01,12,03,16.20
2015,10,01,12,04,16.30
2015,10,01,12,05,16.30
2015,10,01,12,06,16.30
2015,10,01,12,07,16.30
2015,10,01,12,08,16.30
2015,10,01,12,09,16.30
2015,10,01,12,10,16.30
2015,10,01,12,11,16.30
2015,10,01,12,12,16.30
2015,10,01,12,13,16.30
2015,10,01,12,14,16.20
2015,10,01,12,15,16.20
2015,10,01,12,16,16.20
2015,10,01,12,17,16.20
2015,10,01,12,18,16.20
2015,10,01,12,19,16.30
2015,10,01,12,20,16.30
2015,10,01,12,21,16.30
2015,10,01,12,22,16.40
2015,10,01,12,23,16.40
2015,10,01,12,24,16.60
2015,10,01,12,25,16.80
2015,10,01,12,26,17.00
2015,10,01,12,27,17.10
2015,10,01,12,28,17.30
2015,10,01,12,29,17.30
2015,10,01,12,30,17.30
2015,10,01,12,31,17.30
2015,10,01,12,32,17.20
2015,10,01,12,33,17.20
2015,10,01,12,34,17.10
2015,10,01,12,35,17.10
2015,10,01,12,36,17.10
2015,10,01,12,37,17.10
2015,10,01,12,38,17.10
2015,10,01,12,39,17.10
2015,10,01,12,40,17.20
2015,10,01,12,41,17.10
2015,10,01,12,42,17.10
2015,10,01,12,43,17.10
2015,10,01,12,44,17.10
2015,10,01,12,45,17.10
2015,10,01,12,46,17.10
2015,10,01,12,47,17.20
2015,10,01,12,48,17.20
2015,10,01,12,49,17.30
2015,10,01,12,50,17.30
2015,10,01,12,51,17.30
2015,10,01,12,52,17.30
2015,10,01,12,53,17.30
2015,10,01,12,54,17.30
2015,10,01,12,55,17.30
2015,10,01,12,56,17.40
2015,10,01,12,57,17.40
2015,10,01,12,58,17.40
2015,10,01,12,59,17.40
2015,10,01,13,00,17.40
2015,10,01,13,01,17.40
2015,10,01,13,02,17.50
2015,10,01,13,03,17.50
2015,10,01,13,04,17.60
2015,10,01,13,05,17.60
2015,10,01,13,06,17.70
2015,10,01,13,07,17.70
2015,10,01,13,08,17.70
2015,10,01,13,09,17.70
2015,10,01,13,10,17.70
2015,10,01,13,11,17.70
2015,10,01,13,12,17.80
2015,10,01,13,13,17.70
2015,10,01,13,14,17.70
2015,10,01,13,15,17.70
2015,10,01,13,16,17.70
2015,10,01,13,17,17.70
2015,10,01,13,18,17.70
2015,10,01,13,19,17.60
2015,10,01,13,20,17.60
2015,10,01,13,21,17.70
2015,10,01,13,22,17.70
2015,10,01,13,23,17.70
2015,10,01,13,24,17.60
2015,10,01,13,25,17.70
2015,10,01,13,26,17.60
2015,10,01,13,27,17.70
2015,10,01,13,28,17.70
2015,10,01,13,29,17.70
2015,10,01,13,30,17.80
2015,10,01,13,31,17.90
2015,10,01,13,32,17.90
2015,10,01,13,33,18.00
2015,10,01,13,34,18.00
2015,10,01,13,35,18.00
2015,10,01,13,36,18.10
2015,10,01,13,37,18.10
2015,10,01,13,38,18.10
2015,10,01,13,39,18.10
2015,10,01,13,40,18.10
2015,10,01,13,41,18.10
2015,10,01,13,42,18.10
2015,10,01,13,43,18.10
2015,10,01,13,44,18.10
2015,10,01,13,45,18.20
2015,10,01,13,46,18.30
2015,10,01,13,47,18.50
2015,10,01,13,48,18.60
2015,10,01,13,49,18.70
2015,10,01,13,50,18.70
2015,10,01,13,51,18.80
2015,10,01,13,52,18.80
2015,10,01,13,53,18.90
2015,10,01,13,54,19.00
2015,10,01,13,55,19.10
2015,10,01,13,56,19.20
2015,10,01,13,57,19.20
2015,10,01,13,58,19.20
2015,10,01,13,59,19.20
2015,10,01,14,00,19.20
2015,10,01,14,01,19.20
2015,10,01,14,02,19.10
2015,10,01,14,03,19.10
2015,10,01,14,04,19.00
2015,10,01,14,05,18.90
2015,10,01,14,06,18.90
2015,10,01,14,07,18.90
2015,10,01,14,08,18.80
2015,10,01,14,09,18.80
2015,10,01,14,10,18.90
2015,10,01,14,11,18.90
2015,10,01,14,12,18.90
2015,10,01,14,13,18.90
2015,10,01,14,14,18.90
2015,10,01,14,15,18.90
2015,10,01,14,16,18.90
2015,10,01,14,17,18.90
2015,10,01,14,18,18.90
2015,10,01,14,19,18.90
2015,10,01,14,20,19.00
2015,10,01,14,21,19.00
2015,10,01,14,22,19.00
2015,10,01,14,23,19.00
2015,10,01,14,24,19.10
2015,10,01,14,25,19.10
2015,10,01,14,26,19.10
2015,10,01,14,27,19.10
2015,10,01,14,28,19.10
2015,10,01,14,29,19.10
2015,10,01,14,30,19.10
2015,10,01,14,31,19.10
2015,10,01,14,32,19.20
2015,10,01,14,33,19.20
2015,10,01,14,34,19.30
2015,10,01,14,35,19.30
2015,10,01,14,36,19.30
2015,10,01,14,37,19.30
2015,10,01,14,38,19.40
2015,10,01,14,39,19.40
2015,10,01,14,40,19.40
2015,10,01,14,41,19.40
2015,10,01,14,42,19.50
2015,10,01,14,43,19.60
2015,10,01,14,44,19.70
2015,10,01,14,45,19.70
2015,10,01,14,46,19.80
2015,10,01,14,47,19.80
2015,10,01,14,48,19.90
2015,10,01,14,49,19.90
2015,10,01,14,50,19.90
2015,10,01,14,51,19.90
2015,10,01,14,52,19.90
2015,10,01,14,53,19.90
2015,10,01,14,54,19.90
2015,10,01,14,55,19.90
2015,10,01,14,56,19.90
2015,10,01,14,57,20.00
2015,10,01,14,58,20.00
2015,10,01,14,59,20.10
2015,10,01,15,00,20.10
2015,10,01,15,01,20.10
2015,10,01,15,02,20.10
2015,10,01,15,03,20.20
2015,10,01,15,04,20.30
2015,10,01,15,05,20.30
2015,10,01,15,06,20.40
2015,10,01,15,07,20.50
2015,10,01,15,08,20.60
2015,10,01,15,09,20.60
2015,10,01,15,10,20.60
2015,10,01,15,11,20.60
2015,10,01,15,12,20.60
2015,10,01,15,13,20.60
2015,10,01,15,14,20.60
2015,10,01,15,15,20.60
2015,10,01,15,16,20.60
2015,10,01,15,17,20.60
2015,10,01,15,18,20.60
2015,10,01,15,19,20.50
2015,10,01,15,20,20.50
2015,10,01,15,21,20.40
2015,10,01,15,22,20.50
2015,10,01,15,23,20.50
2015,10,01,15,24,20.50
2015,10,01,15,25,20.50
2015,10,01,15,26,20.50
2015,10,01,15,27,20.50
2015,10,01,15,28,20.50
2015,10,01,15,29,20.50
2015,10,01,15,30,20.60
2015,10,01,15,31,20.70
2015,10,01,15,32,20.70
2015,10,01,15,33,20.70
2015,10,01,15,34,20.70
2015,10,01,15,35,20.80
2015,10,01,15,36,20.80
2015,10,01,15,37,20.80
2015,10,01,15,38,20.80
2015,10,01,15,39,20.80
2015,10,01,15,40,20.80
2015,10,01,15,41,20.70
2015,10,01,15,42,20.70
2015,10,01,15,43,20.80
2015,10,01,15,44,20.80
2015,10,01,15,45,20.90
2015,10,01,15,46,20.90
2015,10,01,15,47,20.90
2015,10,01,15,48,20.90
2015,10,01,15,49,20.90
2015,10,01,15,50,21.00
2015,10,01,15,51,21.00
2015,10,01,15,52,21.00
2015,10,01,15,53,21.00
2015,10,01,15,54,21.10
2015,10,01,15,55,21.10
2015,10,01,15,56,21.20
2015,10,01,15,57,21.30
2015,10,01,15,58,21.40
2015,10,01,15,59,21.50
2015,10,01,16,00,21.60
2015,10,01,16,01,21.60
2015,10,01,16,02,21.60
2015,10,01,16,03,21.60
2015,10,01,16,04,21.60
2015,10,01,16,05,21.60
2015,10,01,16,06,21.60
2015,10,01,16,07,21.60
2015,10,01,16,08,21.60
2015,10,01,16,09,21.50
2015,10,01,16,10,21.50
2015,10,01,16,11,21.50
2015,10,01,16,12,21.50
2015,10,01,16,13,21.50
2015,10,01,16,14,21.50
2015,10,01,16,15,21.40
2015,10,01,16,16,21.50
2015,10,01,16,17,21.40
2015,10,01,16,18,21.50
2015,10,01,16,19,21.50
2015,10,01,16,20,21.40
2015,10,01,16,21,21.40
2015,10,01,16,22,21.40
2015,10,01,16,23,21.40
2015,10,01,16,24,21.40
2015,10,01,16,25,21.40
2015,10,01,16,26,21.40
2015,10,01,16,27,21.50
2015,10,01,16,28,21.50
2015,10,01,16,29,21.60
2015,10,01,16,30,21.60
2015,10,01,16,31,21.60
2015,10,01,16,32,21.60
2015,10,01,16,33,21.60
2015,10,01,16,34,21.60
2015,10,01,16,35,21.60
2015,10,01,16,36,21.60
2015,10,01,16,37,21.50
2015,10,01,16,38,21.50
2015,10,01,16,39,21.50
2015,10,01,16,40,21.40
2015,10,01,16,41,21.40
2015,10,01,16,42,21.40
2015,10,01,16,43,21.40
2015,10,01,16,44,21.40
2015,10,01,16,45,21.40
2015,10,01,16,46,21.40
2015,10,01,16,47,21.40
2015,10,01,16,48,21.40
2015,10,01,16,49,21.40
2015,10,01,16,50,21.40
2015,10,01,16,51,21.40
2015,10,01,16,52,21.40
2015,10,01,16,53,21.30
2015,10,01,16,54,21.40
2015,10,01,16,55,21.30
2015,10,01,16,56,21.30
2015,10,01,16,57,21.30
2015,10,01,16,58,21.20
2015,10,01,16,59,21.20
2015,10,01,17,00,21.10
2015,10,01,17,01,21.00
2015,10,01,17,02,20.90
2015,10,01,17,03,20.90
2015,10,01,17,04,20.80
2015,10,01,17,05,20.80
2015,10,01,17,06,20.80
2015,10,01,17,07,20.70
2015,10,01,17,08,20.70
2015,10,01,17,09,20.70
2015,10,01,17,10,20.80
2015,10,01,17,11,20.80
2015,10,01,17,12,20.90
2015,10,01,17,13,20.90
2015,10,01,17,14,20.90
2015,10,01,17,15,21.00
2015,10,01,17,16,20.90
2015,10,01,17,17,21.00
2015,10,01,17,18,21.00
2015,10,01,17,19,21.00
2015,10,01,17,20,21.00
2015,10,01,17,21,21.00
2015,10,01,17,22,21.00
2015,10,01,17,23,21.00
2015,10,01,17,24,20.90
2015,10,01,17,25,20.90
2015,10,01,17,26,20.90
2015,10,01,17,27,20.90
2015,10,01,17,28,20.90
2015,10,01,17,29,20.80
2015,10,01,17,30,20.80
2015,10,01,17,31,20.80
2015,10,01,17,32,20.80
2015,10,01,17,33,20.80
2015,10,01,17,34,20.80
2015,10,01,17,35,20.80
2015,10,01,17,36,20.80
2015,10,01,17,37,20.80
2015,10,01,17,38,20.80
2015,10,01,17,39,20.80
2015,10,01,17,40,20.80